Regional Weather Roundup
Issued by NWS Northern Indiana

Home | Current Version | Previous Version | Text Only | Print | Product List | Glossary On
Versions: 1 2 3 4 5 6 7 8 9 10 11 12 13 14 15 16 17 18 19 20 21 22 23 24 25 26 27 28 29 30 31 32 33 34 35 36 37 38 39 40 41 42 43 44 45 46 47 48 49 50
000
ASUS43 KIWX 040200
RWRIWX

KIWX WEATHER ROUNDUP
NATIONAL WEATHER SERVICE NORTHERN INDIANA
1000 PM EDT SUN MAY 03 2015

NOTE: "FAIR" INDICATES FEW OR NO CLOUDS BELOW 12,000 FEET WITH NO
SIGNIFICANT WEATHER AND/OR OBSTRUCTIONS TO VISIBILITY.

* THESE STATIONS ARE NOT UNDER NWS QUALITY CONTROL. THEY ALSO MAY NOT
  REPORT WEATHER SUCH AS PRECIPITATION OR FOG.

INZ001>027-040300-
NORTHERN INDIANA

CITY           SKY/WX    TMP DP  RH WIND       PRES   REMARKS
GARY*          LGT RAIN  61 N/A N/A E7        29.96R
SOUTH BEND     CLOUDY    72  46  39 S8        29.98S
GOSHEN         CLOUDY    71  47  42 S8        30.00R
ANGOLA*        CLEAR     70  48  46 S7        30.02R
FORT WAYNE     MOCLDY    65  50  58 S7        30.04R
PERU/GRISSOM   MOCLDY    63  49  59 S9        30.02R

$$
INZ028>050-040300-
CENTRAL INDIANA

CITY           SKY/WX    TMP DP  RH WIND       PRES   REMARKS
LAFAYETTE      MOCLDY    68  45  43 S5        30.01R
MUNCIE*        PTCLDY    70  47  43 S8        30.05R
INDIANAPOLIS   MOCLDY    69  44  40 S9        30.04R

$$
MIZ043>046-050>051-056>058-064>065-071>073-077>080-040300-
SOUTHWEST LOWER MICHIGAN

CITY           SKY/WX    TMP DP  RH WIND       PRES   REMARKS
BATTLE CREEK   MOCLDY    70  46  42 S10       29.99S
BENTON HARBOR  CLOUDY    61  50  67 SW8       29.96R
COLDWATER*     MOCLDY    69  44  41 S7        30.01R
HILLSDALE*     PTCLDY    68  46  44 S5        30.03R
HOLLAND        CLOUDY    71  47  42 S9        29.94R
GRAND RAPIDS   CLOUDY    71  45  39 S9        29.94S
KALAMAZOO      CLOUDY    69  46  43 S8        29.98S
STURGIS*       CLOUDY    70  48  46 CALM      30.00R
THREE RIVERS*  FAIR      70  46  42 S8        29.99R

$$
OHZ001>008-015>018-024>025-040300-
NORTHWEST OHIO

CITY           SKY/WX    TMP DP  RH WIND       PRES   REMARKS
DEFIANCE       CLEAR     67  47  48 S5        30.04R
FINDLAY        CLEAR     63  47  55 S9        30.05R
TOLEDO EXPRESS CLEAR     65  45  48 S3        30.04R
TOLEDO METCALF CLEAR     64  45  49 S8        30.05R
LIMA           CLEAR     65  47  52 S6        30.07R

$$
AND FOR LAKE MICHIGAN COASTAL AND OPEN LAKE BUOY OBSERVATIONS

STATION/POSITION TEMP    WIND        PRES    VSBY  WAVE
                 AIR SEA DIR/SP/G                  HT/PER
                 (F)     (DEG/KT/KT) (MB)    (MI)  (FT/S)
CALUMET HARBOR    60      10/  3/  4   N/A
MICHIGAN CITY     75     170/ 12/ 15   N/A
BURNS HARBOR      57      20/  8/ 11 1015.2S
SAINT JOSEPH             200/  9/ 18 1015.6R
4 MI NW BRIDGMAN  53 49  300/  8/ 10   N/A           1/ 3
MICHIGAN CITY     53 51  320/  4/  6   N/A           1

$$
&&



USA.gov is the U.S. government's official web portal to all federal, state and local government web resources and services.